RH
28 30 30 29 28 23 23 21 21 25 29 30 41 58 60 61 62 62 66 67 68 65 69 68 58 51 43 41 39 34 37 38 35 40 45 46 46 53 58 57 51 48 54 56
30 30 27 27 25 23 23 23 20 20 22 22 40 50 60 59 59 59 62 64 65 66 59 59 60 57 45 40 39 34 32 33 30 33 40 44 48 56 56 52 47 46 51 63
30 25 26 27 26 25 22 22 20 20 21 32 44 59 65 65 66 68 64 63 65 67 65 53 61 56 48 39 38 35 29 30 32 31 39 42 50 53 52 49 44 42 47 53
26 21 25 27 27 25 25 20 20 20 20 24 31 45 66 61 62 67 64 64 68 66 66 47 51 55 47 42 37 36 32 26 30 29 36 38 38 42 43 42 40 39 42 43
25 21 24 26 24 24 23 22 21 19 20 22 21 25 43 61 62 62 57 62 58 65 61 54 48 46 49 48 40 34 34 27 25 29 32 33 35 38 41 37 41 40 35 35
22 23 22 23 24 25 24 21 22 22 22 23 23 23 34 47 41 44 48 51 55 62 61 56 50 46 49 48 45 38 34 30 24 25 28 29 32 35 35 39 47 36 31 29
19 20 21 22 23 26 26 27 30 28 26 24 22 25 20 30 31 33 40 49 54 61 65 63 52 49 46 46 44 41 35 32 27 22 24 25 28 32 32 32 36 34 33 29
20 18 21 19 22 25 26 28 33 31 30 25 21 24 19 19 23 25 31 41 51 59 63 63 57 52 41 43 41 43 38 33 30 25 20 22 25 30 33 33 33 34 32 30
20 20 20 19 21 23 27 29 27 31 29 31 27 22 17 30 32 30 30 35 36 43 58 61 63 63 50 43 39 39 41 37 33 28 24 19 20 25 32 34 35 33 33 30
22 20 22 22 24 27 28 28 32 33 33 36 32 28 27 38 39 35 28 33 31 36 41 57 65 64 60 55 55 45 36 36 36 34 30 23 17 20 27 33 33 33 33 31
25 23 21 24 28 33 36 36 35 37 38 41 39 35 49 48 47 46 33 24 31 36 43 56 64 71 69 63 61 65 56 44 36 37 34 30 21 17 20 28 33 33 35 33
28 31 29 23 29 30 36 44 42 46 49 48 46 46 51 57 54 52 44 32 39 44 45 50 54 63 71 71 63 62 61 53 46 36 38 35 29 21 18 21 28 31 34 33
27 32 33 24 27 27 35 44 46 45 42 50 54 49 55 55 60 66 58 57 55 67 73 77 69 57 65 72 66 66 66 65 58 52 38 40 37 29 22 20 23 27 29 31
20 23 27 35 30 30 30 43 50 50 53 50 49 44 58 62 60 72 71 70 66 73 78 65 70 59 80 80 70 73 70 72 72 59 52 37 40 38 31 23 21 25 26 27
26 29 28 28 24 23 25 29 42 51 53 52 51 49 71 67 67 70 79 81 76 79 82 79 70 75 80 70 68 73 72 75 72 70 61 45 34 39 40 36 26 23 23 26
33 36 33 31 25 23 22 24 33 39 51 59 58 58 71 65 64 63 73 83 85 81 75 74 84 81 76 66 64 64 68 74 73 64 62 55 44 37 36 39 38 33 24 22
32 39 40 40 33 26 24 30 34 52 57 61 75 71 66 67 68 67 72 78 83 82 75 69 76 80 80 81 69 66 75 79 73 65 69 70 59 41 36 33 37 36 34 27
39 44 49 53 41 41 29 32 39 58 70 68 65 68 71 70 65 66 69 75 81 88 87 75 71 77 85 81 81 84 86 86 79 74 74 69 64 59 46 36 32 32 35 34
50 54 57 58 56 44 38 53 60 55 67 76 67 63 66 73 69 68 70 76 80 88 88 80 76 77 78 87 91 84 76 85 89 86 83 80 71 63 59 44 34 34 31 29
52 57 63 62 61 62 59 54 66 65 69 71 72 65 68 65 77 71 67 73 79 88 92 88 75 69 70 70 80 83 72 74 78 86 85 82 76 75 61 57 45 38 36 32
59 61 62 66 70 67 62 58 62 73 73 74 85 81 75 77 64 63 59 59 67 78 85 81 80 68 65 62 68 78 91 87 79 75 69 68 67 69 60 60 53 45 39 36
64 70 71 71 75 73 66 64 73 76 74 80 83 88 87 79 75 60 55 55 60 65 78 81 81 78 63 59 60 61 63 79 82 72 75 77 85 77 68 60 57 49 46 43
71 70 71 70 67 65 60 62 64 68 68 73 73 77 85 83 73 68 53 53 56 56 64 76 77 80 70 60 53 56 57 56 67 72 82 86 87 83 74 73 61 57 53 48
60 62 67 67 59 64 62 58 57 58 57 57 63 63 69 74 77 68 64 54 50 53 58 66 71 75 79 66 54 51 49 50 53 55 61 72 76 71 70 69 64 62 58 54
56 56 54 54 53 58 63 61 62 62 62 61 58 56 58 58 59 66 59 51 48 48 53 56 62 67 72 69 60 51 49 49 50 49 50 57 68 61 63 67 65 60 57 58
58 57 52 47 44 49 53 55 63 66 66 68 64 57 55 57 52 54 54 49 43 42 48 53 59 60 64 67 67 53 48 50 46 43 46 58 65 73 65 66 70 66 63 59